Flag for Germany Weather past 2 weeks in Stassfurt, Saxony-Anhalt, Germany

Now
46 °F

Passing clouds.


Feels Like: 46 °F
Forecast: 43 / 57 °F
Wind: 1 mph from Southwest

Location: Magdeburg

Current Time: Oct 23, 2014 at 9:56:08 PM

Latest Report: Oct 23, 2014 at 9:00 PM


Visibility: 6 mi

Pressure: 30.23 "Hg

Humidity: 95%

Dew point: 44 °F

Location of StassfurtLocation

Historic Weather in Stassfurt — Graph

°F

Stassfurt temperature yesterday

Maximum temperature yesterday: 53 °F (at 8:00 PM)
Minimum temperature yesterday: 47 °F (at 7:00 AM)
Average temperature yesterday: 50 °F

Past Weeks' High & Low Weather Summary

 TemperatureHumidityPressure
High74 °F (Oct 19, 3:00 PM)98% (Oct 11, 7:00 AM)30.23 "Hg (Oct 11, 7:00 AM)
Low46 °F (Oct 23, 9:00 PM)54% (Oct 14, 4:00 PM)29.47 "Hg (Oct 21, 7:00 PM)
Average57 °F86%29.87 "Hg
* Reported Oct 8 9:00 PM — Oct 23 9:00 PM, Stassfurt, Weather by CustomWeather, © 2014

Note: Actual official high and low records may vary slightly from our data, if they occured in-between our weather recording intervals... More about our weather records

Advertising

Stassfurt weather history for previous 24 hours

 ConditionsComfort  
Time TempWeatherWind HumidityBarometerVisibility
9:00 PM
Oct 23
46 °FPassing clouds.1 mph95%30.23 "Hg6 mi
8:00 PM47 °FPassing clouds.1 mph93%30.22 "Hg6 mi
7:00 PM49 °FPassing clouds.1 mph90%30.22 "Hg9 mi
6:00 PM52 °FPartly sunny.1 mph85%30.21 "Hg11 mi
4:00 PM56 °FPartly sunny.2 mph68%30.20 "Hg16 mi
3:00 PM56 °FOvercast.1 mph64%30.20 "Hg12 mi
2:00 PM56 °FOvercast.2 mph68%30.19 "Hg11 mi
1:00 PM53 °FOvercast.3 mph76%30.19 "Hg11 mi
12:00 PM52 °FOvercast.3 mph80%30.18 "Hg7 mi
10:00 AM50 °FOvercast.2 mph87%30.16 "Hg5 mi
9:00 AM50 °FFog.2 mph89%30.15 "Hg4 mi
8:00 AM50 °FFog.2 mph89%30.12 "Hg4 mi
7:00 AM50 °FOvercast.3 mph88%30.10 "Hg5 mi
6:00 AM51 °FOvercast.2 mph88%30.08 "Hg6 mi
5:00 AM51 °FOvercast.3 mph90%30.06 "Hg6 mi
4:00 AM51 °FOvercast.3 mph89%30.05 "Hg7 mi
3:00 AM51 °FLow clouds.3 mph91%30.03 "Hg6 mi
2:00 AM51 °FDrizzle. Low clouds.3 mph93%30.01 "Hg4 mi
1:00 AM52 °FLow clouds.3 mph92%30.00 "Hg7 mi
12:00 AM52 °FLow clouds.3 mph91%29.98 "Hg9 mi
10:00 PM
Oct 22
53 °FLight freezing rain. Overcast.3 mph92%29.93 "Hg3 mi
9:00 PM53 °FOvercast.5 mph86%29.90 "Hg19 mi
Weather by CustomWeather, © 2014

See weather overviewHow to use our weather pages